Time,TemperatureF,DewpointF,PressureIn,WindDirection,WindDirectionDegrees,WindSpeedMPH,WindSpeedGustMPH,Humidity,HourlyPrecipIn,Conditions,Clouds,dailyrainin,SoftwareType,DateUTC
2013-11-29 00:12:00,17.0,14.0,30.22,ESE,122,3.0,9.0,87,0.00,,,0.00,,2013-11-29 06:12:00,
2013-11-29 00:22:00,17.0,14.0,30.20,SSE,150,4.0,9.0,87,0.00,,,0.00,,2013-11-29 06:22:00,
2013-11-29 00:42:00,17.0,14.0,30.20,SE,133,4.0,9.0,88,0.00,,,0.00,,2013-11-29 06:42:00,
2013-11-29 00:52:00,17.0,14.0,30.19,SE,145,5.0,10.0,88,0.00,,,0.00,,2013-11-29 06:52:00,
2013-11-29 01:21:00,17.0,14.0,30.18,SE,134,4.0,10.0,88,0.00,,,0.00,,2013-11-29 07:21:00,
2013-11-29 01:42:00,17.0,14.0,30.17,ESE,109,3.0,10.0,88,0.00,,,0.00,,2013-11-29 07:42:00,
2013-11-29 01:52:00,16.0,13.0,30.17,SE,136,4.0,9.0,88,0.00,,,0.00,,2013-11-29 07:52:00,
2013-11-29 02:11:00,16.0,13.0,30.16,SE,132,4.0,10.0,88,0.00,,,0.00,,2013-11-29 08:11:00,
2013-11-29 02:21:00,16.0,13.0,30.15,SE,124,4.0,10.0,88,0.00,,,0.00,,2013-11-29 08:21:00,
2013-11-29 02:42:00,16.0,13.0,30.14,ESE,120,4.0,13.0,88,0.00,,,0.00,,2013-11-29 08:42:00,
2013-11-29 02:53:00,16.0,13.0,30.14,ESE,107,4.0,11.0,89,0.00,,,0.00,,2013-11-29 08:53:00,
2013-11-29 03:11:00,16.0,13.0,30.13,East,97,6.0,11.0,88,0.00,,,0.00,,2013-11-29 09:11:00,
2013-11-29 03:21:00,16.0,13.0,30.12,SE,126,4.0,10.0,88,0.00,,,0.00,,2013-11-29 09:21:00,
2013-11-29 03:43:00,16.0,13.0,30.12,SSE,150,4.0,10.0,89,0.00,,,0.00,,2013-11-29 09:43:00,
2013-11-29 03:52:00,16.0,13.0,30.11,SE,126,3.0,7.0,89,0.00,,,0.00,,2013-11-29 09:52:00,
2013-11-29 04:13:00,16.0,14.0,30.11,East,99,3.0,9.0,90,0.00,,,0.00,,2013-11-29 10:13:00,
2013-11-29 04:23:00,16.0,14.0,30.09,SE,128,3.0,10.0,90,0.00,,,0.00,,2013-11-29 10:23:00,
2013-11-29 04:42:00,17.0,15.0,30.09,ESE,123,4.0,9.0,90,0.00,,,0.00,,2013-11-29 10:42:00,
2013-11-29 04:52:00,17.0,15.0,30.09,SSE,161,3.0,8.0,91,0.00,,,0.00,,2013-11-29 10:52:00,
2013-11-29 05:12:00,17.0,15.0,30.09,SE,138,3.0,6.0,91,0.00,,,0.00,,2013-11-29 11:12:00,
2013-11-29 05:22:00,17.0,15.0,30.08,ESE,119,3.0,8.0,90,0.00,,,0.00,,2013-11-29 11:22:00,
2013-11-29 05:42:00,18.0,16.0,30.08,SE,128,4.0,8.0,91,0.00,,,0.00,,2013-11-29 11:42:00,
2013-11-29 05:52:00,18.0,16.0,30.07,SSE,150,6.0,13.0,91,0.00,,,0.00,,2013-11-29 11:52:00,
2013-11-29 06:12:00,19.0,17.0,30.06,SE,132,5.0,13.0,90,0.00,,,0.00,,2013-11-29 12:12:00,
2013-11-29 06:22:00,19.0,17.0,30.06,SSE,159,4.0,8.0,90,0.00,,,0.00,,2013-11-29 12:22:00,
2013-11-29 06:42:00,19.0,17.0,30.05,South,176,4.0,11.0,90,0.00,,,0.00,,2013-11-29 12:42:00,
2013-11-29 06:52:00,18.0,16.0,30.05,SSE,164,4.0,8.0,90,0.00,,,0.00,,2013-11-29 12:52:00,
2013-11-29 07:11:00,19.0,17.0,30.03,SSE,168,5.0,11.0,90,0.00,,,0.00,,2013-11-29 13:11:00,
2013-11-29 07:22:00,19.0,17.0,30.03,SSE,163,6.0,11.0,91,0.00,,,0.00,,2013-11-29 13:22:00,
2013-11-29 07:42:00,19.0,17.0,30.04,SSE,162,7.0,11.0,90,0.00,,,0.00,,2013-11-29 13:42:00,
2013-11-29 07:52:00,19.0,17.0,30.04,SSE,156,6.0,10.0,90,0.00,,,0.00,,2013-11-29 13:52:00,
2013-11-29 08:11:00,19.0,17.0,30.03,SSE,157,5.0,9.0,90,0.00,,,0.00,,2013-11-29 14:11:00,
2013-11-29 08:22:00,19.0,17.0,30.02,SE,144,6.0,10.0,90,0.00,,,0.00,,2013-11-29 14:22:00,
2013-11-29 08:42:00,19.0,17.0,30.01,SE,144,6.0,9.0,91,0.00,,,0.00,,2013-11-29 14:42:00,
2013-11-29 08:52:00,19.0,17.0,30.01,South,178,5.0,11.0,91,0.00,,,0.00,,2013-11-29 14:52:00,
2013-11-29 09:11:00,19.0,17.0,30.01,SSE,155,6.0,11.0,91,0.00,,,0.00,,2013-11-29 15:11:00,
2013-11-29 09:22:00,19.0,17.0,30.01,SSE,162,3.0,10.0,91,0.00,,,0.00,,2013-11-29 15:22:00,
2013-11-29 09:43:00,20.0,18.0,30.02,SSE,165,3.0,8.0,91,0.00,,,0.00,,2013-11-29 15:43:00,
2013-11-29 09:53:00,20.0,18.0,30.01,South,170,4.0,7.0,91,0.00,,,0.00,,2013-11-29 15:53:00,
2013-11-29 10:13:00,20.0,18.0,30.01,SSE,160,3.0,7.0,91,0.00,,,0.00,,2013-11-29 16:13:00,
2013-11-29 10:23:00,21.0,19.0,30.01,SSE,157,4.0,6.0,91,0.00,,,0.00,,2013-11-29 16:23:00,
2013-11-29 10:42:00,21.0,19.0,30.00,South,171,5.0,9.0,91,0.00,,,0.00,,2013-11-29 16:42:00,
2013-11-29 10:53:00,22.0,20.0,30.00,SSE,163,7.0,12.0,91,0.00,,,0.00,,2013-11-29 16:53:00,
2013-11-29 11:12:00,23.0,21.0,30.00,South,191,9.0,13.0,91,0.00,,,0.00,,2013-11-29 17:12:00,
2013-11-29 11:22:00,23.0,21.0,30.00,SSE,164,6.0,9.0,91,0.00,,,0.00,,2013-11-29 17:22:00,
2013-11-29 11:52:00,24.0,22.0,29.98,South,175,6.0,8.0,91,0.00,,,0.00,,2013-11-29 17:52:00,
2013-11-29 12:11:00,25.0,22.0,29.97,South,173,6.0,10.0,90,0.00,,,0.00,,2013-11-29 18:11:00,
2013-11-29 12:22:00,26.0,23.0,29.96,SSE,159,6.0,11.0,88,0.00,,,0.00,,2013-11-29 18:22:00,
2013-11-29 12:42:00,27.0,23.0,29.95,South,184,6.0,11.0,85,0.00,,,0.00,,2013-11-29 18:42:00,
2013-11-29 12:52:00,28.0,24.0,29.95,South,169,6.0,10.0,83,0.00,,,0.00,,2013-11-29 18:52:00,
2013-11-29 13:11:00,30.0,25.0,29.93,South,176,6.0,9.0,81,0.00,,,0.00,,2013-11-29 19:11:00,
2013-11-29 13:21:00,31.0,25.0,29.94,SSE,155,4.0,8.0,79,0.00,,,0.00,,2013-11-29 19:21:00,
2013-11-29 13:42:00,31.0,25.0,29.93,South,182,6.0,10.0,77,0.00,,,0.00,,2013-11-29 19:42:00,
2013-11-29 13:52:00,33.0,27.0,29.94,SW,229,5.0,9.0,77,0.00,,,0.00,,2013-11-29 19:52:00,
2013-11-29 14:11:00,34.0,27.0,29.93,WSW,246,2.0,7.0,74,0.00,,,0.00,,2013-11-29 20:11:00,
2013-11-29 14:22:00,35.0,27.0,29.93,SW,218,4.0,7.0,73,0.00,,,0.00,,2013-11-29 20:22:00,
2013-11-29 14:42:00,36.0,28.0,29.93,SW,221,4.0,8.0,71,0.00,,,0.00,,2013-11-29 20:42:00,
2013-11-29 14:52:00,37.0,28.0,29.92,SW,231,4.0,7.0,70,0.00,,,0.00,,2013-11-29 20:52:00,
2013-11-29 15:12:00,37.0,28.0,29.92,SSW,205,4.0,7.0,69,0.00,,,0.00,,2013-11-29 21:12:00,
2013-11-29 15:22:00,38.0,28.0,29.92,SSW,205,3.0,5.0,67,0.00,,,0.00,,2013-11-29 21:22:00,
2013-11-29 15:43:00,39.0,29.0,29.92,SW,215,3.0,6.0,66,0.00,,,0.00,,2013-11-29 21:43:00,
2013-11-29 15:53:00,39.0,28.0,29.92,SSW,197,3.0,6.0,64,0.00,,,0.00,,2013-11-29 21:53:00,
2013-11-29 16:13:00,39.0,27.0,29.92,SSW,206,3.0,5.0,63,0.00,,,0.00,,2013-11-29 22:13:00,
2013-11-29 16:23:00,39.0,27.0,29.92,SSW,206,1.0,4.0,63,0.00,,,0.00,,2013-11-29 22:23:00,
2013-11-29 16:42:00,39.0,27.0,29.93,SSW,206,1.0,3.0,63,0.00,,,0.00,,2013-11-29 22:42:00,
2013-11-29 16:53:00,39.0,27.0,29.93,SSW,206,0.0,2.0,63,0.00,,,0.00,,2013-11-29 22:53:00,
2013-11-29 17:12:00,39.0,28.0,29.93,SSW,206,0.0,0.0,64,0.00,,,0.00,,2013-11-29 23:12:00,
2013-11-29 17:22:00,38.0,27.0,29.93,SSW,206,0.0,0.0,64,0.00,,,0.00,,2013-11-29 23:22:00,
2013-11-29 17:42:00,37.0,26.0,29.93,SSW,206,0.0,0.0,64,0.00,,,0.00,,2013-11-29 23:42:00,
2013-11-29 17:52:00,35.0,26.0,29.93,SSW,206,0.0,0.0,69,0.00,,,0.00,,2013-11-29 23:52:00,
2013-11-29 18:11:00,33.0,24.0,29.94,SSW,206,0.0,1.0,70,0.00,,,0.00,,2013-11-30 00:11:00,
2013-11-29 18:21:00,32.0,24.0,29.94,SSW,206,0.0,1.0,73,0.00,,,0.00,,2013-11-30 00:21:00,
2013-11-29 18:42:00,31.0,24.0,29.95,SSW,206,0.0,1.0,76,0.00,,,0.00,,2013-11-30 00:42:00,
2013-11-29 18:52:00,30.0,24.0,29.96,SSW,206,0.0,2.0,77,0.00,,,0.00,,2013-11-30 00:52:00,
2013-11-29 19:11:00,30.0,25.0,29.96,SSW,206,0.0,1.0,80,0.00,,,0.00,,2013-11-30 01:11:00,
2013-11-29 19:21:00,29.0,24.0,29.96,SSW,206,0.0,0.0,81,0.00,,,0.00,,2013-11-30 01:21:00,
2013-11-29 19:42:00,29.0,24.0,29.96,SW,217,0.0,3.0,80,0.00,,,0.00,,2013-11-30 01:42:00,
2013-11-29 19:52:00,29.0,24.0,29.96,SW,217,0.0,2.0,81,0.00,,,0.00,,2013-11-30 01:52:00,
2013-11-29 20:22:00,29.0,24.0,29.96,SW,227,1.0,3.0,82,0.00,,,0.00,,2013-11-30 02:22:00,
2013-11-29 20:42:00,29.0,24.0,29.96,WSW,239,1.0,4.0,82,0.00,,,0.00,,2013-11-30 02:42:00,
2013-11-29 20:52:00,29.0,24.0,29.96,WSW,239,0.0,2.0,82,0.00,,,0.00,,2013-11-30 02:52:00,
2013-11-29 21:11:00,28.0,23.0,29.95,WSW,239,0.0,0.0,81,0.00,,,0.00,,2013-11-30 03:11:00,
2013-11-29 21:22:00,27.0,22.0,29.95,WSW,239,1.0,1.0,82,0.00,,,0.00,,2013-11-30 03:22:00,
2013-11-29 21:54:00,26.0,22.0,29.97,WSW,239,0.0,2.0,85,0.00,,,0.00,,2013-11-30 03:54:00,
2013-11-29 22:13:00,26.0,22.0,29.96,WSW,253,2.0,4.0,86,0.00,,,0.00,,2013-11-30 04:13:00,
2013-11-29 22:23:00,26.0,23.0,29.96,WSW,253,0.0,2.0,87,0.00,,,0.00,,2013-11-30 04:23:00,
2013-11-29 22:43:00,25.0,22.0,29.96,WSW,253,3.0,3.0,87,0.00,,,0.00,,2013-11-30 04:43:00,
2013-11-29 22:53:00,25.0,22.0,29.97,West,267,2.0,3.0,88,0.00,,,0.00,,2013-11-30 04:53:00,
2013-11-29 23:12:00,25.0,22.0,29.98,West,275,2.0,4.0,88,0.00,,,0.00,,2013-11-30 05:12:00,
2013-11-29 23:22:00,25.0,22.0,29.98,NW,309,3.0,6.0,88,0.00,,,0.00,,2013-11-30 05:22:00,
2013-11-29 23:43:00,25.0,22.0,29.98,NW,310,2.0,3.0,88,0.00,,,0.00,,2013-11-30 05:43:00,
2013-11-29 23:53:00,25.0,22.0,29.98,NW,310,0.0,3.0,88,0.00,,,0.00,,2013-11-30 05:53:00,